Regional Weather Roundup
Issued by NWS

Home | Current Version | Previous Version | Graphics & Text | Print | Product List | Glossary On
Versions: 1 2 3 4 5 6 7 8 9 10 11 12 13 14 15 16 17 18 19 20 21 22 23 24 25 26 27 28 29 30 31 32 33 34 35 36 37 38 39 40 41 42 43 44 45 46 47 48 49 50
000
ASUS43 KIND 180109
RWRIN

WEATHER ROUNDUP FOR INDIANA
NATIONAL WEATHER SERVICE INDIANAPOLIS IN
900 PM EDT THU APR 17 2014

NOTE: "FAIR" INDICATES FEW OR NO CLOUDS BELOW 12,000 FEET WITH NO
SIGNIFICANT WEATHER AND/OR OBSTRUCTIONS TO VISIBILITY.

* - STATION DOES NOT REPORT WEATHER SUCH AS PRECIPITATION OR FOG.

+ - STATION NOT QUALITY CONTROLLED BY THE NATIONAL WEATHER SERVICE.
    USE DATA WITH CAUTION...ESPECIALLY DEWPOINT AND RELATIVE
    HUMIDITY OBSERVATIONS.

INZ001>003-010>013-019-020-180200-
NORTHWEST INDIANA

CITY           SKY/WX    TMP DP  RH WIND       PRES   REMARKS
GARY /AIRPORT/ CLOUDY    59  37  44 W14       30.22R
LA PORTE +     CLOUDY    55  37  50 NW5       30.23R
MICHIGAN CITY+ CLOUDY    52  34  50 CALM      30.24R
MONTICELLO +   MOCLDY    57  38  50 SW6       30.23R
RENSSELAER +   CLOUDY    55  36  47 CALM      30.24R
VALPARAISO     CLOUDY    55  38  52 W8        30.23R

$$

LMZ046-743>745-180200-
SOUTHERN LAKE MICHIGAN

STATION/POSITION TIME  TEMP WIND        PRES
                       AIR  DIR/SP/G
                 (UTC) (F)  (DEG/KT/KT) (MB)
MICHIGAN CITY    0100   50   CALM  /  1   N/A

$$

INZ004-005-014>016-021>024-180200-
NORTH CENTRAL INDIANA

CITY           SKY/WX    TMP DP  RH WIND       PRES   REMARKS
ELKHART        MOCLDY    57  36  44 SW7       30.22R
GOSHEN         PTCLDY    56  38  50 S7        30.22R
LOGANSPORT +   MOCLDY    54  37  54 SW8       30.25R
PERU/GRISSOM   MOCLDY    54  41  60 SW8       30.24R
ROCHESTER +    MOCLDY    59  36  41 SW5       30.24R
SOUTH BEND     MOCLDY    56  36  47 NW9       30.24R
WARSAW +       MOCLDY    55  36  47 CALM      30.23R

$$

INZ006>009-017-018-025>027-180200-
NORTHEAST INDIANA

CITY           SKY/WX    TMP DP  RH WIND       PRES   REMARKS
ANGOLA *+      CLEAR     55  37  50 CALM      30.23R
AUBURN +       PTCLDY    57  32  38 S3        30.25R
FORT WAYNE     MOCLDY    56  34  43 SW6       30.25R

$$

INZ028-029-035-036-043>045-051>053-180200-
WEST CENTRAL INDIANA

CITY           SKY/WX    TMP DP  RH WIND       PRES   REMARKS
GREENCASTLE +  MOCLDY    59  36  41 CALM      30.26S
LAFAYETTE      MOCLDY    59  35  40 SW5       30.24R
TERRE HAUTE    PTCLDY    57  38  48 S6        30.25F

$$

INZ030>032-037>040-046>048-054>057-064-065-180200-
CENTRAL INDIANA

CITY           SKY/WX    TMP DP  RH WIND       PRES   REMARKS
CP ATTERBURY + PTCLDY    59  34  38 CALM      30.26S
GREENWOOD *+   MOCLDY    59  34  38 CALM      30.27
INDIANAPOLIS   MOCLDY    55  34  45 W7        30.26R
-EAGLE CREEK   MOCLDY    60  32  34 SW5       30.26R
KOKOMO *+      CLOUDY    57  37  47 S9        30.25R
MARION +       MOCLDY    56  36  48 SW7       30.26R
MT COMFORT *+  MOCLDY    55  39  54 SW3       30.27R
SHELBYVILLE    MOCLDY    60  37  42 S7        30.26R
ZIONSVILLE +   MOCLDY    56  32  40 SW3       30.27R

$$

INZ033-034-041-042-049-050-058-059-180200-
EAST CENTRAL INDIANA

CITY           SKY/WX    TMP DP  RH WIND       PRES   REMARKS
MUNCIE         MOCLDY    59  34  39 S7        30.26R

$$

INZ060-061-067>069-081>083-085>088-180200-
SOUTHWEST INDIANA

CITY           SKY/WX    TMP DP  RH WIND       PRES   REMARKS
EVANSVILLE     CLEAR     63  37  38 CALM      30.25S
HUNTINGBURG *+ CLEAR     59  37  44 CALM      30.26R
WASHINGTON +   PTCLDY    53  47  79 CALM      30.25R

$$

INZ062-063-066-070>080-084-089>092-180200-
SOUTH CENTRAL AND SOUTHEAST INDIANA

CITY           SKY/WX    TMP DP  RH WIND       PRES   REMARKS
BLOOMINGTON    PTCLDY    54  35  48 CALM      30.25F
SEYMOUR +      PTCLDY    52  23  32 CALM      30.26

$$




USA.gov is the U.S. government's official web portal to all federal, state and local government web resources and services.